Time,TemperatureF,DewpointF,PressureIn,WindDirection,WindDirectionDegrees,WindSpeedMPH,WindSpeedGustMPH,Humidity,HourlyPrecipIn,Conditions,Clouds,dailyrainin,SoftwareType,DateUTC
2013-02-24 00:01:00,-999.0,-99.9,-100.00,North,354,19.0,-999.0,-999,-99.99,,,-99.99,,2013-02-24 08:01:00,
2013-02-24 00:11:00,-999.0,-99.9,-100.00,NW,326,20.0,-999.0,-999,-99.99,,,-99.99,,2013-02-24 08:11:00,
2013-02-24 00:22:00,-999.0,-99.9,-100.00,NW,326,21.0,-999.0,-999,-99.99,,,-99.99,,2013-02-24 08:22:00,
2013-02-24 00:32:00,-999.0,-99.9,-100.00,NNW,348,19.0,-999.0,-999,-99.99,,,-99.99,,2013-02-24 08:32:00,
2013-02-24 00:42:00,-999.0,-99.9,-100.00,NNW,348,19.0,-999.0,-999,-99.99,,,-99.99,,2013-02-24 08:42:00,
2013-02-24 00:54:00,-999.0,-99.9,-100.00,NNW,348,18.0,-999.0,-999,-99.99,,,-99.99,,2013-02-24 08:54:00,
2013-02-24 01:02:00,-999.0,-99.9,-100.00,North,354,20.0,-999.0,-999,-99.99,,,-99.99,,2013-02-24 09:02:00,
2013-02-24 01:11:00,-999.0,-99.9,-100.00,North,354,19.0,-999.0,23,-99.99,,,-99.99,,2013-02-24 09:11:00,
2013-02-24 01:22:00,-999.0,-99.9,-100.00,North,354,14.0,-999.0,-999,-99.99,,,-99.99,,2013-02-24 09:22:00,
2013-02-24 01:32:00,-999.0,-99.9,-100.00,North,354,14.0,-999.0,-999,-99.99,,,-99.99,,2013-02-24 09:32:00,
2013-02-24 01:42:00,40.0,-99.9,-100.00,North,-999,-999.0,-999.0,-999,-99.99,,,-99.99,,2013-02-24 09:42:00,
2013-02-24 01:52:00,-999.0,-99.9,-100.00,NNW,348,11.0,-999.0,-999,-99.99,,,-99.99,,2013-02-24 09:52:00,
2013-02-24 02:01:00,-999.0,-99.9,-100.00,NNW,343,11.0,-999.0,-999,-99.99,,,-99.99,,2013-02-24 10:01:00,
2013-02-24 02:22:00,-999.0,-99.9,-100.00,NNW,343,9.0,-999.0,-999,-99.99,,,-99.99,,2013-02-24 10:22:00,
2013-02-24 02:32:00,-999.0,-99.9,-100.00,North,354,11.0,-999.0,-999,-99.99,,,-99.99,,2013-02-24 10:32:00,
2013-02-24 02:42:00,-999.0,-99.9,-100.00,North,11,12.0,-999.0,-999,-99.99,,,-99.99,,2013-02-24 10:42:00,
2013-02-24 02:52:00,-999.0,-99.9,-100.00,North,11,12.0,-999.0,-999,-99.99,,,-99.99,,2013-02-24 10:52:00,
2013-02-24 03:01:00,-999.0,-99.9,-100.00,North,354,15.0,-999.0,-999,-99.99,,,-99.99,,2013-02-24 11:01:00,
2013-02-24 03:11:00,-999.0,-99.9,-100.00,NNE,16,16.0,-999.0,-999,-99.99,,,-99.99,,2013-02-24 11:11:00,
2013-02-24 03:22:00,-999.0,-99.9,-100.00,NNE,16,16.0,-999.0,-999,-99.99,,,-99.99,,2013-02-24 11:22:00,
2013-02-24 03:32:00,-999.0,-99.9,-100.00,North,0,14.0,-999.0,-999,-99.99,,,-99.99,,2013-02-24 11:32:00,
2013-02-24 03:42:00,-999.0,-99.9,-100.00,North,0,14.0,-999.0,-999,-99.99,,,-99.99,,2013-02-24 11:42:00,
2013-02-24 03:53:00,-999.0,-99.9,-100.00,West,281,12.0,-999.0,-999,-99.99,,,-99.99,,2013-02-24 11:53:00,
2013-02-24 04:02:00,-999.0,-99.9,-100.00,NNW,337,12.0,-999.0,-999,-99.99,,,-99.99,,2013-02-24 12:02:00,
2013-02-24 04:11:00,-999.0,-99.9,-100.00,NNW,343,11.0,-999.0,-999,-99.99,,,-99.99,,2013-02-24 12:11:00,
2013-02-24 04:22:00,-999.0,-99.9,-100.00,NNW,343,11.0,-999.0,-999,-99.99,,,-99.99,,2013-02-24 12:22:00,
2013-02-24 04:33:00,-999.0,-99.9,-100.00,NNW,343,11.0,-999.0,-999,-99.99,,,-99.99,,2013-02-24 12:33:00,
2013-02-24 04:46:00,-999.0,-99.9,-100.00,NNW,348,14.0,-999.0,-999,-99.99,,,-99.99,,2013-02-24 12:46:00,
2013-02-24 05:16:00,-999.0,-99.9,-100.00,NNW,337,15.0,-999.0,-999,-99.99,,,-99.99,,2013-02-24 13:16:00,
2013-02-24 05:27:00,-999.0,-99.9,-100.00,NW,326,15.0,-999.0,-999,-99.99,,,-99.99,,2013-02-24 13:27:00,
2013-02-24 05:36:00,-999.0,-99.9,-100.00,NNW,337,14.0,-999.0,-999,-99.99,,,-99.99,,2013-02-24 13:36:00,
2013-02-24 05:46:00,-999.0,-99.9,-100.00,NNW,337,15.0,-999.0,-999,-99.99,,,-99.99,,2013-02-24 13:46:00,
2013-02-24 05:56:00,-999.0,-99.9,-100.00,NNW,331,16.0,-999.0,-999,-99.99,,,-99.99,,2013-02-24 13:56:00,
2013-02-24 06:05:00,-999.0,-99.9,-100.00,West,275,16.0,-999.0,-999,-99.99,,,-99.99,,2013-02-24 14:05:00,
2013-02-24 06:15:00,-999.0,-99.9,-100.00,West,275,13.0,-999.0,-999,-99.99,,,-99.99,,2013-02-24 14:15:00,
2013-02-24 06:26:00,-999.0,-99.9,-100.00,NNW,348,11.0,-999.0,-999,-99.99,,,-99.99,,2013-02-24 14:26:00,
2013-02-24 06:35:00,-999.0,-99.9,-100.00,NNW,348,11.0,-999.0,-999,-99.99,,,-99.99,,2013-02-24 14:35:00,
2013-02-24 06:46:00,-999.0,-99.9,-100.00,NNW,343,11.0,-999.0,-999,-99.99,,,-99.99,,2013-02-24 14:46:00,
2013-02-24 06:55:00,-999.0,-99.9,-100.00,NNW,331,11.0,-999.0,-999,-99.99,,,-99.99,,2013-02-24 14:55:00,
2013-02-24 07:04:00,-999.0,-99.9,-100.00,NNW,337,11.0,-999.0,-999,-99.99,,,-99.99,,2013-02-24 15:04:00,
2013-02-24 07:15:00,-999.0,-99.9,-100.00,NW,315,12.0,-999.0,-999,-99.99,,,-99.99,,2013-02-24 15:15:00,
2013-02-24 07:24:00,-999.0,-99.9,-100.00,NW,315,12.0,-999.0,-999,-99.99,,,-99.99,,2013-02-24 15:24:00,
2013-02-24 07:32:00,-999.0,-99.9,-100.00,ENE,78,10.0,-999.0,-999,-99.99,,,-99.99,,2013-02-24 15:32:00,
2013-02-24 07:43:00,-999.0,-99.9,-100.00,NNW,343,10.0,-999.0,-999,-99.99,,,-99.99,,2013-02-24 15:43:00,
2013-02-24 07:53:00,-999.0,-99.9,-100.00,NNW,343,10.0,-999.0,-999,-99.99,,,-99.99,,2013-02-24 15:53:00,
2013-02-24 08:02:00,-999.0,-99.9,-100.00,NNW,348,19.0,-999.0,-999,-99.99,,,-99.99,,2013-02-24 16:02:00,
2013-02-24 08:12:00,-999.0,-99.9,-100.00,NNW,348,16.0,-999.0,-999,-99.99,,,-99.99,,2013-02-24 16:12:00,
2013-02-24 08:22:00,-999.0,-99.9,-100.00,NNW,348,20.0,-999.0,-999,-99.99,,,-99.99,,2013-02-24 16:22:00,
2013-02-24 08:32:00,-999.0,-99.9,-100.00,North,0,21.0,-999.0,-999,-99.99,,,-99.99,,2013-02-24 16:32:00,
2013-02-24 08:42:00,-999.0,-99.9,-100.00,NW,326,20.0,-999.0,-999,-99.99,,,-99.99,,2013-02-24 16:42:00,
2013-02-24 08:52:00,-999.0,-99.9,-100.00,NW,326,23.0,-999.0,-999,-99.99,,,-99.99,,2013-02-24 16:52:00,
2013-02-24 09:01:00,-999.0,-99.9,-100.00,North,0,23.0,-999.0,-999,-99.99,,,-99.99,,2013-02-24 17:01:00,
2013-02-24 09:11:00,-999.0,-99.9,-100.00,NNW,348,22.0,-999.0,-999,-99.99,,,-99.99,,2013-02-24 17:11:00,
2013-02-24 09:22:00,-999.0,-99.9,-100.00,NNW,348,21.0,-999.0,-999,-99.99,,,-99.99,,2013-02-24 17:22:00,
2013-02-24 09:32:00,-999.0,-99.9,-100.00,NNW,337,23.0,-999.0,-999,-99.99,,,-99.99,,2013-02-24 17:32:00,
2013-02-24 09:42:00,-999.0,-99.9,-100.00,SSW,213,22.0,-999.0,-999,-99.99,,,-99.99,,2013-02-24 17:42:00,
2013-02-24 09:53:00,-999.0,-99.9,-100.00,SSW,213,25.0,-999.0,-999,-99.99,,,-99.99,,2013-02-24 17:53:00,
2013-02-24 10:02:00,-999.0,-99.9,-100.00,North,0,22.0,-999.0,-999,-99.99,,,-99.99,,2013-02-24 18:02:00,
2013-02-24 10:12:00,-999.0,-99.9,-100.00,NNW,348,23.0,-999.0,-999,-99.99,,,-99.99,,2013-02-24 18:12:00,
2013-02-24 10:22:00,-999.0,-99.9,-100.00,NNW,348,22.0,-999.0,-999,-99.99,,,-99.99,,2013-02-24 18:22:00,
2013-02-24 10:32:00,-999.0,-99.9,-100.00,North,0,24.0,-999.0,-999,-99.99,,,-99.99,,2013-02-24 18:32:00,
2013-02-24 10:42:00,-999.0,-99.9,-100.00,NNE,28,22.0,-999.0,-999,-99.99,,,-99.99,,2013-02-24 18:42:00,
2013-02-24 10:52:00,-999.0,-99.9,-100.00,NNE,28,22.0,-999.0,-999,-99.99,,,-99.99,,2013-02-24 18:52:00,
2013-02-24 11:02:00,-999.0,-99.9,-100.00,NNW,348,21.0,-999.0,-999,-99.99,,,-99.99,,2013-02-24 19:02:00,
2013-02-24 11:12:00,-999.0,-99.9,-100.00,East,84,21.0,-999.0,-999,-99.99,,,-99.99,,2013-02-24 19:12:00,
2013-02-24 11:22:00,-999.0,-99.9,-100.00,East,84,19.0,-999.0,-999,-99.99,,,-99.99,,2013-02-24 19:22:00,
2013-02-24 11:32:00,-999.0,-99.9,-100.00,East,84,19.0,-999.0,-999,-99.99,,,-99.99,,2013-02-24 19:32:00,
2013-02-24 11:42:00,-999.0,-99.9,-100.00,NNW,343,20.0,-999.0,-999,-99.99,,,-99.99,,2013-02-24 19:42:00,
2013-02-24 11:52:00,-999.0,-99.9,-100.00,NNW,343,17.0,-999.0,-999,-99.99,,,-99.99,,2013-02-24 19:52:00,
2013-02-24 12:02:00,-999.0,-99.9,-100.00,North,5,18.0,-999.0,-999,-99.99,,,-99.99,,2013-02-24 20:02:00,
2013-02-24 12:11:00,-999.0,-99.9,-100.00,WNW,292,18.0,-999.0,-999,-99.99,,,-99.99,,2013-02-24 20:11:00,
2013-02-24 12:22:00,-999.0,-99.9,-100.00,WNW,292,18.0,-999.0,-999,-99.99,,,-99.99,,2013-02-24 20:22:00,
2013-02-24 12:32:00,-999.0,-99.9,-100.00,NNW,337,20.0,-999.0,-999,-99.99,,,-99.99,,2013-02-24 20:32:00,
2013-02-24 12:42:00,-999.0,-99.9,-100.00,NNW,348,18.0,-999.0,16,-99.99,,,-99.99,,2013-02-24 20:42:00,
2013-02-24 12:52:00,-999.0,-99.9,-100.00,NNW,348,16.0,-999.0,-999,-99.99,,,-99.99,,2013-02-24 20:52:00,
2013-02-24 13:02:00,-999.0,-99.9,-100.00,North,0,19.0,-999.0,-999,-99.99,,,-99.99,,2013-02-24 21:02:00,
2013-02-24 13:11:00,-999.0,-99.9,-100.00,North,0,20.0,-999.0,-999,-99.99,,,-99.99,,2013-02-24 21:11:00,
2013-02-24 13:21:00,-999.0,-99.9,-100.00,North,0,20.0,-999.0,-999,-99.99,,,-99.99,,2013-02-24 21:21:00,
2013-02-24 13:32:00,-999.0,-99.9,-100.00,North,0,15.0,-999.0,-999,-99.99,,,-99.99,,2013-02-24 21:32:00,
2013-02-24 13:42:00,-999.0,-99.9,-100.00,North,354,16.0,-999.0,-999,-99.99,,,-99.99,,2013-02-24 21:42:00,
2013-02-24 13:52:00,-999.0,-99.9,-100.00,North,354,16.0,-999.0,-999,-99.99,,,-99.99,,2013-02-24 21:52:00,
2013-02-24 14:01:00,-999.0,-99.9,-100.00,North,0,16.0,-999.0,-999,-99.99,,,-99.99,,2013-02-24 22:01:00,
2013-02-24 14:11:00,-999.0,-99.9,-100.00,North,354,17.0,-999.0,-999,-99.99,,,-99.99,,2013-02-24 22:11:00,
2013-02-24 14:22:00,-999.0,-99.9,-100.00,North,354,17.0,-999.0,-999,-99.99,,,-99.99,,2013-02-24 22:22:00,
2013-02-24 14:32:00,-999.0,-99.9,-100.00,NNW,337,17.0,-999.0,-999,-99.99,,,-99.99,,2013-02-24 22:32:00,
2013-02-24 14:42:00,-999.0,-99.9,-100.00,NNW,337,14.0,-999.0,-999,-99.99,,,-99.99,,2013-02-24 22:42:00,
2013-02-24 14:52:00,-999.0,-99.9,-100.00,NNW,343,16.0,-999.0,-999,-99.99,,,-99.99,,2013-02-24 22:52:00,
2013-02-24 15:02:00,-999.0,-99.9,-100.00,NNW,343,13.0,-999.0,-999,-99.99,,,-99.99,,2013-02-24 23:02:00,
2013-02-24 15:11:00,-999.0,-99.9,-100.00,NNW,343,17.0,-999.0,-999,-99.99,,,-99.99,,2013-02-24 23:11:00,
2013-02-24 15:22:00,-999.0,-99.9,-100.00,NNW,348,16.0,-999.0,-999,-99.99,,,-99.99,,2013-02-24 23:22:00,
2013-02-24 15:32:00,-999.0,-99.9,-100.00,NNW,343,15.0,-999.0,-999,-99.99,,,-99.99,,2013-02-24 23:32:00,
2013-02-24 15:42:00,-999.0,-99.9,-100.00,NNW,343,13.0,-999.0,-999,-99.99,,,-99.99,,2013-02-24 23:42:00,
2013-02-24 15:52:00,-999.0,-99.9,-100.00,NNW,343,16.0,-999.0,-999,-99.99,,,-99.99,,2013-02-24 23:52:00,
2013-02-24 16:02:00,-999.0,-99.9,-100.00,NNW,337,15.0,-999.0,-999,-99.99,,,-99.99,,2013-02-25 00:02:00,
2013-02-24 16:11:00,-999.0,-99.9,-100.00,North,0,18.0,-999.0,-999,-99.99,,,-99.99,,2013-02-25 00:11:00,
2013-02-24 16:22:00,-999.0,-99.9,-100.00,North,0,18.0,-999.0,-999,-99.99,,,-99.99,,2013-02-25 00:22:00,
2013-02-24 16:32:00,-999.0,-99.9,-100.00,NNE,22,17.0,-999.0,-999,-99.99,,,-99.99,,2013-02-25 00:32:00,
2013-02-24 16:42:00,-999.0,-99.9,-100.00,NNW,331,17.0,-999.0,-999,-99.99,,,-99.99,,2013-02-25 00:42:00,
2013-02-24 17:11:00,-999.0,-99.9,-100.00,North,354,17.0,-999.0,-999,-99.99,,,-99.99,,2013-02-25 01:11:00,
2013-02-24 17:22:00,-999.0,-99.9,-100.00,North,354,15.0,-999.0,-999,-99.99,,,-99.99,,2013-02-25 01:22:00,
2013-02-24 17:32:00,-999.0,-99.9,-100.00,NNW,348,17.0,-999.0,-999,-99.99,,,-99.99,,2013-02-25 01:32:00,
2013-02-24 17:42:00,-999.0,-99.9,-100.00,NNW,348,17.0,-999.0,-999,-99.99,,,-99.99,,2013-02-25 01:42:00,
2013-02-24 17:52:00,-999.0,-99.9,-100.00,North,11,16.0,-999.0,-999,-99.99,,,-99.99,,2013-02-25 01:52:00,
2013-02-24 18:01:00,-999.0,-99.9,-100.00,SSE,168,16.0,-999.0,-999,-99.99,,,-99.99,,2013-02-25 02:01:00,
2013-02-24 18:22:00,-999.0,-99.9,-100.00,North,0,13.0,-999.0,-999,-99.99,,,-99.99,,2013-02-25 02:22:00,
2013-02-24 18:32:00,-999.0,-99.9,-100.00,North,0,13.0,-999.0,-999,-99.99,,,-99.99,,2013-02-25 02:32:00,
2013-02-24 18:42:00,-999.0,-99.9,-100.00,North,0,13.0,-999.0,-999,-99.99,,,-99.99,,2013-02-25 02:42:00,
2013-02-24 18:52:00,-999.0,-99.9,-100.00,North,5,9.0,-999.0,-999,-99.99,,,-99.99,,2013-02-25 02:52:00,
2013-02-24 19:12:00,49.0,-99.9,-100.00,North,-999,-999.0,-999.0,-999,-99.99,,,-99.99,,2013-02-25 03:12:00,
2013-02-24 19:22:00,49.0,-99.9,-100.00,North,-999,-999.0,-999.0,-999,-99.99,,,-99.99,,2013-02-25 03:22:00,
2013-02-24 19:32:00,-999.0,-99.9,-100.00,NE,50,8.0,-999.0,-999,-99.99,,,-99.99,,2013-02-25 03:32:00,
2013-02-24 19:42:00,-999.0,-99.9,-100.00,North,0,10.0,-999.0,-999,-99.99,,,-99.99,,2013-02-25 03:42:00,
2013-02-24 19:52:00,-999.0,-99.9,-100.00,North,0,10.0,-999.0,-999,-99.99,,,-99.99,,2013-02-25 03:52:00,
2013-02-24 20:02:00,-999.0,-99.9,-100.00,NNW,343,9.0,-999.0,-999,-99.99,,,-99.99,,2013-02-25 04:02:00,
2013-02-24 20:11:00,-999.0,-99.9,-100.00,North,354,11.0,-999.0,-999,-99.99,,,-99.99,,2013-02-25 04:11:00,
2013-02-24 20:22:00,-999.0,-99.9,-100.00,North,354,11.0,-999.0,-999,-99.99,,,-99.99,,2013-02-25 04:22:00,
2013-02-24 20:32:00,-999.0,-99.9,-100.00,NE,45,10.0,-999.0,17,-99.99,,,-99.99,,2013-02-25 04:32:00,
2013-02-24 20:41:00,45.0,6.0,-100.00,North,-999,-999.0,-999.0,20,-99.99,,,-99.99,,2013-02-25 04:41:00,
2013-02-24 20:52:00,45.0,6.0,-100.00,North,-999,-999.0,-999.0,20,-99.99,,,-99.99,,2013-02-25 04:52:00,
2013-02-24 21:01:00,-999.0,-99.9,-100.00,North,11,4.0,-999.0,-999,-99.99,,,-99.99,,2013-02-25 05:01:00,
2013-02-24 21:11:00,-999.0,-99.9,-100.00,North,11,4.0,-999.0,-999,-99.99,,,-99.99,,2013-02-25 05:11:00,
2013-02-24 21:22:00,-999.0,-99.9,-100.00,North,11,4.0,-999.0,-999,-99.99,,,-99.99,,2013-02-25 05:22:00,
2013-02-24 21:42:00,-999.0,-99.9,-100.00,North,354,3.0,-999.0,-999,-99.99,,,-99.99,,2013-02-25 05:42:00,
2013-02-24 21:52:00,-999.0,-99.9,-100.00,North,354,3.0,-999.0,-999,-99.99,,,-99.99,,2013-02-25 05:52:00,
2013-02-24 22:03:00,-999.0,-99.9,-100.00,NNE,33,9.0,-999.0,-999,-99.99,,,-99.99,,2013-02-25 06:03:00,
2013-02-24 22:22:00,-999.0,-99.9,-100.00,NE,45,7.0,-999.0,-999,-99.99,,,-99.99,,2013-02-25 06:22:00,
2013-02-24 22:32:00,-999.0,-99.9,-100.00,NE,45,7.0,-999.0,-999,-99.99,,,-99.99,,2013-02-25 06:32:00,
2013-02-24 22:42:00,-999.0,-99.9,-100.00,NE,45,8.0,-999.0,-999,-99.99,,,-99.99,,2013-02-25 06:42:00,
2013-02-24 22:52:00,-999.0,-99.9,-100.00,NE,45,8.0,-999.0,-999,-99.99,,,-99.99,,2013-02-25 06:52:00,
2013-02-24 23:21:00,-999.0,-99.9,-100.00,ENE,67,4.0,-999.0,-999,-99.99,,,-99.99,,2013-02-25 07:21:00,
2013-02-24 23:32:00,39.0,-99.9,-100.00,North,-999,-999.0,-999.0,-999,-99.99,,,-99.99,,2013-02-25 07:32:00,
2013-02-24 23:41:00,39.0,10.0,-100.00,North,-999,-999.0,-999.0,29,-99.99,,,0.00,,2013-02-25 07:41:00,
2013-02-24 23:51:00,39.0,10.0,-100.00,North,-999,-999.0,-999.0,29,-99.99,,,0.00,,2013-02-25 07:51:00,